Regional Weather Roundup
Issued by NWS

Home | Current Version | Previous Version | Text Only | Print | Product List | Glossary Off
Versions: 1 2 3 4 5 6 7 8 9 10 11 12 13 14 15 16 17 18 19 20 21 22 23 24 25 26 27 28 29 30 31 32 33 34 35 36 37 38 39 40 41 42 43 44 45 46 47 48 49 50

671
ASUS43 KIND 282209
RWRIN

WEATHER ROUNDUP FOR INDIANA
NATIONAL WEATHER SERVICE INDIANAPOLIS IN
600 PM EDT SUN MAY 28 2017

NOTE: "FAIR" INDICATES FEW OR NO CLOUDS BELOW 12,000 FEET WITH NO
SIGNIFICANT WEATHER AND/OR OBSTRUCTIONS TO VISIBILITY.

* - STATION DOES NOT REPORT WEATHER SUCH AS PRECIPITATION OR FOG.

+ - STATION NOT QUALITY CONTROLLED BY THE NATIONAL WEATHER SERVICE.
    USE DATA WITH CAUTION...ESPECIALLY DEWPOINT AND RELATIVE
    HUMIDITY OBSERVATIONS.

INZ001>003-010>013-019-020-282300-
NORTHWEST INDIANA

CITY           SKY/WX    TMP DP  RH WIND       PRES   REMARKS
GARY /AIRPORT/ MOSUNNY   70  57  64 CALM      29.75R
KNOX *+        CLOUDY    73  50  43 NW13G21   29.72R
LA PORTE +     MOSUNNY   70  59  66 NW9       29.74R
MICHIGAN CITY+ MOSUNNY   68  57  68 N5        29.75R
MONTICELLO +   LGT RAIN  73  62  67 W10       29.71S
RENSSELAER +   MOSUNNY   77  50  38 W16G24    29.74R
VALPARAISO     SUNNY     75  60  59 NW12      29.74R

$$

LMZ046-743>745-282300-
SOUTHERN LAKE MICHIGAN

STATION/POSITION TIME  TEMP    WIND        PRES    WAVE
                       AIR SEA DIR/SP/G            HT
                 (UTC) (F)     (DEG/KT/KT) (MB)    (FT)
BURNS HARBOR     2140   58     290/  2/  3 1007.8R
MICHIGAN CITY    2140   57     260/  2/  2   N/A
5NW MICH CITY    2200   56 57  270/  2/  4   N/A     1

$$

INZ004-005-014>016-021>024-282300-
NORTH CENTRAL INDIANA

CITY           SKY/WX    TMP DP  RH WIND       PRES   REMARKS
ELKHART        MOSUNNY   73  59  60 NW14G20   29.71R
GOSHEN         SUNNY     76  59  55 W14       29.69R
LOGANSPORT +   MOSUNNY   73  59  60 W9        29.71F
PERU/GRISSOM   PTSUNNY   78  66  66 SW13      29.70S
ROCHESTER +    MOSUNNY   77  61  57 NW8G16    29.71R
SOUTH BEND     SUNNY     72  59  63 NW16      29.73R
WARSAW +       PTSUNNY   75  63  64 NW8       29.70S

$$

INZ006>009-017-018-025>027-282300-
NORTHEAST INDIANA

CITY           SKY/WX    TMP DP  RH WIND       PRES   REMARKS
ANGOLA *+      PTSUNNY   70  63  78 S6        29.68F
AUBURN +       LGT RAIN  64  63  94 SW3       29.71S
FORT WAYNE     TSTM      64  60  87 SW8       29.72R FOG
HUNTINGTON +   TSTM      64  63  95 W6        29.73R
KENDALLVILLE + MOSUNNY   70  66  87 S6        29.70F

$$

INZ028-029-035-036-043>045-051>053-282300-
WEST CENTRAL INDIANA

CITY           SKY/WX    TMP DP  RH WIND       PRES   REMARKS
CRAWFORDSVL +  CLOUDY   -17 -17 100 S8        29.76F WCI -34
GREENCASTLE +  LGT RAIN  64  63  94 CALM      29.79R
LAFAYETTE      PTSUNNY   75  65  70 NW12      29.72R
TERRE HAUTE    PTSUNNY   76  67  73 MISG      29.76F

$$

INZ030>032-037>040-046>048-054>057-064-065-282300-
CENTRAL INDIANA

CITY           SKY/WX    TMP DP  RH WIND       PRES   REMARKS
CP ATTERBURY + CLOUDY    75  63  64 SW9G16    29.78S
COLUMBUS       CLOUDY    75  59  57 SW13      29.78R
FISHERS *+     CLOUDY    70  64  83 W8        29.77R
FRANKFORT +    CLOUDY    73  68  82 SW7       29.76S
GREENWOOD *+   CLOUDY    74  60  61 W10G20    29.78R
INDIANAPOLIS   TSTM      71  64  78 W22G33    29.79R VSB 3/4
-EAGLE CREEK   TSTM      68  64  87 SW9G18    29.78R VSB 3/4
KOKOMO +       CLOUDY    74  67  78 SW16      29.73S
MARION +       CLOUDY    68  63  83 SW12G18   29.74S
MT COMFORT *+    N/A    N/A N/A N/A MISG        N/A
SHELBYVILLE    CLOUDY    77  61  57 SW15      29.76R
ZIONSVILLE +   RAIN      66  63  87 SW7       29.77R

$$

INZ033-034-041-042-049-050-058-059-282300-
EAST CENTRAL INDIANA

CITY           SKY/WX    TMP DP  RH WIND       PRES   REMARKS
MUNCIE         PTSUNNY   77  61  57 SW12G18   29.73R
RICHMOND +     SUNNY     72  61  68 SW17      29.78S

$$

INZ060-061-067>069-081>083-085>088-282300-
SOUTHWEST INDIANA

CITY           SKY/WX    TMP DP  RH WIND       PRES   REMARKS
EVANSVILLE     CLOUDY    76  64  66 W9        29.83S
HUNTINGBURG *+ CLOUDY    74  65  73 SW12      29.82S
WASHINGTON +   CLOUDY    71  64  78 W12       29.81R

$$

INZ062-063-066-070>080-084-089>092-282300-
SOUTH CENTRAL AND SOUTHEAST INDIANA

CITY           SKY/WX    TMP DP  RH WIND       PRES   REMARKS
BEDFORD +      MOSUNNY   75  61  60 W8G17     29.80R
BLOOMINGTON    CLOUDY    77  61  57 W12       29.78S
MADISON *+     CLOUDY    72  63  73 SW10      29.84R
NORTH VERNON + PTSUNNY   72  63  73 SW13      29.81R
SEYMOUR +      PTSUNNY   77  64  65 SW12      29.79R

$$





USA.gov is the U.S. government's official web portal to all federal, state and local government web resources and services.